INMARSAT 3-F3

Last updated on Sat Aug 15 2026 00:02:56 GMT+0000 (Coordinated Universal Time)

1 24674U 96070A 26226.27967279 -.00000189 00000+0 00000+0 0 9999 2 24674 10.4407 49.0774 0004562 120.6395 238.0367 1.00000181108486
UTC large
Height (km)
Speed (km/s)
/
Latitude / Longitude
Inclination (degrees)
Orbital Period (minutes)
Azimuth
Elevation
Range (km)
Doppler Factor

Next 0 passes for location: London (51.5072 / 0.1276)

No passes found over London.
INMARSAT 3-F3